Location: Dompnac
(44.5644°N, 4.1026°E)
Time: 18:24:59
(UTC+00:00)

Cosmos 1634 Rocket - Pass Details

Date: 21 January 2021
Orbit: 961 x 991 km, 82.9° (Epoch: 05 March)

Event Time Altitude Azimuth Distance (km) Brightness Sun altitude
Rises 05:55:20 0° 183° (S) 3,630 7.1 -13.7°
Reaches altitude 10° 05:57:49 10° 183° (S) 2,687 6.5 -13.3°
Maximum altitude 06:03:58 83° 96° (E) 975 4.1 -12.2°
Drops below altitude 10° 06:10:10 10° 10° (N) 2,710 6.3 -11.2°
Sets 06:12:41 0° 9° (N) 3,663 6.9 -10.7°
